Regional Weather Roundup
Issued by NWS

Home | Current Version | Previous Version | Text Only | Print | Product List | Glossary On
Versions: 1 2 3 4 5 6 7 8 9 10 11 12 13 14 15 16 17 18 19 20 21 22 23 24 25 26 27 28 29 30 31 32 33 34 35 36 37 38 39 40 41 42 43 44 45 46 47 48 49 50
000
ASUS43 KDMX 170606
RWRIA

WEATHER ROUNDUP FOR IOWA
NATIONAL WEATHER SERVICE DES MOINES IA
100 AM CDT THU AUG 17 2017

NOTE: "FAIR" INDICATES FEW OR NO CLOUDS BELOW 12,000 FEET WITH NO
SIGNIFICANT WEATHER AND/OR OBSTRUCTIONS TO VISIBILITY.

* - THESE STATIONS ARE NOT NWS STATIONS...THUS NOT UNDER NWS
QUALITY CONTROL.  THEY ALSO DO NOT REPORT WEATHER SUCH
AS PRECIPITATION OR FOG.

IAZ001>003-012>014-020>022-031>034-043>046-170700-
   NORTHWEST IOWA

CITY           SKY/WX    TMP DP  RH WIND       PRES   REMARKS
CARROLL *      CLOUDY    66  64  94 W15       29.76S
DENISON *      CLOUDY    64  63  94 W10G17    29.80S
LE MARS *      CLOUDY    66  64  94 W12       29.75F
ORANGE CITY *  LGT RAIN  66  66 100 W10       29.75S
SHELDON *      CLOUDY    66  64  94 W10G16    29.72S
SIOUX CITY     CLOUDY    66  64  93 NW13      29.77F
6HR MIN TEMP:  66; 6HR MAX TEMP:  71; 6HR PCP:  0.01;

SPENCER        LGT RAIN  66  65  96 W14       29.70S
6HR MIN TEMP:  66; 6HR MAX TEMP:  71; 6HR PCP:  0.02;

STORM LAKE *   CLOUDY    64  64 100 W14G20    29.75R
$$

IAZ055>058-069>071-079>083-090>094-170700-
   SOUTHWEST IOWA

CITY           SKY/WX    TMP DP  RH WIND       PRES   REMARKS
ATLANTIC *     CLEAR     66  64  94 W7        29.80S
AUDUBON *      CLEAR     64  63  94 W5        29.80S
CLARINDA *       N/A     70  66  88 W7        29.85R
COUNCIL BLFS * CLEAR     66  64  94 W13G20    29.83S
CRESTON *      CLOUDY    70  66  88 W9        29.82S
HARLAN  *      CLEAR     64  64 100 W10       29.83F
LAMONI         CLOUDY    70  66  87 W7        29.81R
6HR MIN TEMP:  70; 6HR MAX TEMP:  81;

RED OAK *      CLEAR     66  64  94 W7        29.82S
SHENANDOAH *   CLEAR     66  63  88 W6        29.83F
$$

IAZ047>049-059>061-072>074-084-170700-
   CENTRAL IOWA

CITY           SKY/WX    TMP DP  RH WIND       PRES   REMARKS
AMES           PTCLDY    67  67 100 W9        29.75R
6HR MIN TEMP:  67; 6HR MAX TEMP:  80;

ANKENY *       PTCLDY    70  64  83 W9G17     29.77S
BOONE *        CLOUDY    68  64  88 W9        29.74F
CHARITON *     CLOUDY    72  66  83 W6        29.79R
DES MOINES     MOCLDY    71  66  84 W8        29.76S
6HR MIN TEMP:  71; 6HR MAX TEMP:  85;

GRINNELL*      CLOUDY    70  65  84 W10       29.78R
KNOXVILLE *    CLOUDY    70  64  83 W6        29.76S
NEWTON *       PTCLDY    70  64  83 W7        29.77R
PELLA *        MOCLDY    73  65  77 W6        29.78R
PERRY *        CLOUDY    68  67  95 SW7       29.76F
$$

IAZ004>006-015-016-023>025-035-036-170700-
   NORTH CENTRAL IOWA

CITY           SKY/WX    TMP DP  RH WIND       PRES   REMARKS
ALGONA *       CLOUDY    66  66 100 SW12      29.70R FOG
CLARION *      CLOUDY    66  66 100 SW12      29.72S
ESTHERVILLE    CLOUDY    65  65 100 W10       29.67R
6HR MIN TEMP:  65; 6HR MAX TEMP:  75; 6HR PCP:  0.01;

FORT DODGE *   CLOUDY    66  63  88 W15       29.74R
MASON CITY     MOCLDY    68  63  84 SW15G23   29.70S
6HR MIN TEMP:  67; 6HR MAX TEMP:  75;

FOREST CITY *  CLOUDY    68  64  88 SW14      29.68S
WEBSTER CITY * MOCLDY    66  64  94 W13G18    29.71S
IOWA FALLS *     N/A     67  65  90 SW10      29.74S
$$

IAZ007>011-017>019-026>030-037>042-050>054-066-170700-
   NORTHEAST IOWA

CITY           SKY/WX    TMP DP  RH WIND       PRES   REMARKS
CHARLES CITY * MOCLDY    68  68 100 SW10G20   29.71R
CLINTON *      MOCLDY    74  71  91 SW13      29.76S
DECORAH *      CLOUDY    72  70  94 SW7       29.69R
MONTICELLO *   MOCLDY    73  72  94 S8        29.73S
OELWEIN *      CLOUDY    72  70  94 SW12G18   29.73R
$$

IAZ064-065-067-068-078-170700-
   EAST CENTRAL IOWA

CITY           SKY/WX    TMP DP  RH WIND       PRES   REMARKS
MT. PLEASANT * CLOUDY    73  69  89 S12       29.77F
MUSCATINE *    CLOUDY    73  70  88 S8        29.75F
$$

IAZ062-063-075>077-085>089-095>099-170700-
   SOUTHEAST IOWA

CITY           SKY/WX    TMP DP  RH WIND       PRES   REMARKS
BURLINGTON     MOCLDY    73  70  90 SW10      29.77F
6HR MIN TEMP:  73; 6HR MAX TEMP:  80;

FAIRFIELD *    CLOUDY    75  70  83 S12       29.76F
FORT MADISON * CLOUDY    73  70  88 SW7       29.79F
KEOKUK *       MOCLDY    73  70  88 SW8       29.78F
OSKALOOSA *      N/A     73  70  90 SW7       29.78R
CENTERVILLE *  MOCLDY    73  72  94 CALM      29.81R
OTTUMWA        CLOUDY    75  72  90 SW3       29.77R
6HR MIN TEMP:  75; 6HR MAX TEMP:  84;

WASHINGTON *   CLOUDY    75  72  88 S9        29.77S
$$

ABBREVIATIONS USED IN REMARKS
   TC - TEMPERATURES IN CELSIUS
  WCI - WIND CHILL INDEX
   HX - HEAT INDEX
  VSB - VISIBILITY
$$





USA.gov is the U.S. government's official web portal to all federal, state and local government web resources and services.